Flag for USA

Past Weather in Dover, Delaware, USA — Yesterday and Last 2 Weeks

Currently: 35 °F. Overcast. (Weather station: Millville Municipal Airport, USA). See more current weather

Past Weather in Dover — Graph

°F

Dover Temperature Yesterday

Maximum temperature yesterday: 42 °F (at 3:42 pm)
Minimum temperature yesterday: 32 °F (at 12:54 am)
Average temperature yesterday: 38 °F

High & Low Weather Summary for the Past Weeks

 TemperatureHumidityPressure
High55 °F (Jan 15, 1:54 pm)100% (Jan 26, 6:06 pm)30.29 "Hg (Jan 26, 6:06 pm)
Low16 °F (Jan 21, 4:54 am)30% (Jan 22, 1:54 pm)29.43 "Hg (Jan 16, 1:54 pm)
Average36 °F67%29.91 "Hg
* Reported Jan 12 5:54 pm — Jan 27 5:54 pm, Dover. Weather by CustomWeather, © 2021

Note: Actual official high and low records may vary slightly from our data, if they occured in-between our weather recording intervals... More about our weather records

Dover Weather History for the Previous 24 Hours

Scroll right to see more
 ConditionsComfort  
Time TempWeatherWind HumidityBarometerVisibility
5:54 pm
Wed, Jan 27
36 °FOvercast.8 mph59%30.10 "Hg10 mi
4:54 pm37 °FOvercast.10 mph57%30.09 "Hg10 mi
3:54 pm38 °FOvercast.9 mph55%30.07 "Hg10 mi
2:54 pm39 °FOvercast.14 mph55%30.08 "Hg10 mi
1:54 pm40 °FOvercast.14 mph55%30.03 "Hg10 mi
12:54 pm40 °FOvercast.14 mph58%30.04 "Hg10 mi
11:54 am40 °FOvercast.12 mph58%30.06 "Hg10 mi
10:54 am40 °FMore clouds than sun.15 mph63%30.06 "Hg10 mi
9:54 am40 °FPartly sunny.13 mph68%30.06 "Hg10 mi
8:54 am40 °FSunny.16 mph73%30.03 "Hg10 mi
7:54 am38 °FPartly sunny.13 mph83%30.01 "Hg10 mi
6:54 am38 °FOvercast.8 mph90%29.98 "Hg10 mi
5:54 am37 °FOvercast.10 mph93%29.95 "Hg9 mi
4:54 am36 °FFog.7 mph97%29.93 "Hg5 mi
4:15 am35 °FFog.7 mph100%29.93 "Hg3 mi
3:54 am35 °FFog.6 mph100%29.92 "Hg2 mi
3:21 am35 °FFog.7 mph100%29.92 "Hg1 mi
2:54 am35 °FFog.8 mph96%29.92 "Hg1 mi
2:26 am35 °FFog.6 mph96%29.91 "Hg1 mi
2:06 am35 °FFog.6 mph96%29.90 "Hg0 mi
1:54 am35 °FFog.3 mph100%29.90 "Hg0 mi
12:54 am35 °FFog.3 mph100%29.88 "Hg0 mi
12:22 am36 °FFog.3 mph100%29.88 "Hg0 mi
12:06 am36 °FFog.No wind100%29.87 "Hg0 mi
10:54 pm
Tue, Jan 26
37 °FFog.5 mph100%29.87 "Hg1 mi
10:30 pm37 °FFog.5 mph96%29.87 "Hg1 mi
9:54 pm37 °FFog.3 mph100%29.86 "Hg1 mi
9:21 pm38 °FFog.5 mph97%29.87 "Hg2 mi
8:54 pm39 °FFog.6 mph96%29.85 "Hg4 mi
7:54 pm41 °FFog.6 mph96%29.83 "Hg6 mi
Weather by CustomWeather, © 2021

See weather overview